TimeCDT,TemperatureF,Dew PointF,Humidity,Sea Level PressureIn,VisibilityMPH,Wind Direction,Wind SpeedMPH,Gust SpeedMPH,PrecipitationIn,Events,Conditions,WindDirDegrees,DateUTC
12:53 AM,59.0,57.9,96,30.09,6.0,Calm,Calm,-,N/A,,Clear,0,2013-03-31 05:53:00
1:53 AM,62.1,60.1,93,30.06,10.0,South,3.5,-,N/A,,Partly Cloudy,180,2013-03-31 06:53:00
2:28 AM,57.2,57.2,100,30.06,1.8,Calm,Calm,-,N/A,,Scattered Clouds,0,2013-03-31 07:28:00
2:38 AM,57.2,57.2,100,30.06,3.0,NW,3.5,-,N/A,,Mostly Cloudy,320,2013-03-31 07:38:00
2:48 AM,57.2,57.2,100,30.06,1.5,NW,3.5,-,N/A,,Mostly Cloudy,320,2013-03-31 07:48:00
2:51 AM,57.2,57.2,100,30.06,0.8,Calm,Calm,-,N/A,,Mostly Cloudy,0,2013-03-31 07:51:00
2:53 AM,57.0,57.0,100,30.06,0.8,Calm,Calm,-,N/A,,Mostly Cloudy,0,2013-03-31 07:53:00
3:15 AM,57.2,57.2,100,30.05,2.0,Calm,Calm,-,N/A,,Mostly Cloudy,0,2013-03-31 08:15:00
3:24 AM,57.2,57.2,100,30.05,3.0,Calm,Calm,-,N/A,,Overcast,0,2013-03-31 08:24:00
3:33 AM,57.2,57.2,100,30.05,1.2,Calm,Calm,-,N/A,,Overcast,0,2013-03-31 08:33:00
3:37 AM,57.2,57.2,100,30.04,0.5,Calm,Calm,-,N/A,Fog,Fog,0,2013-03-31 08:37:00
3:44 AM,57.2,57.2,100,30.04,0.5,Calm,Calm,-,N/A,Fog,Fog,0,2013-03-31 08:44:00
3:50 AM,57.2,57.2,100,30.04,1.5,Calm,Calm,-,N/A,,Overcast,0,2013-03-31 08:50:00
3:53 AM,57.0,55.9,96,30.04,4.0,Calm,Calm,-,N/A,,Mostly Cloudy,0,2013-03-31 08:53:00
4:53 AM,57.9,57.9,100,30.03,2.5,Calm,Calm,-,N/A,,Partly Cloudy,0,2013-03-31 09:53:00
5:02 AM,57.2,57.2,100,30.02,1.5,South,3.5,-,N/A,,Partly Cloudy,190,2013-03-31 10:02:00
5:08 AM,59.0,57.2,94,30.02,3.0,Calm,Calm,-,N/A,,Partly Cloudy,0,2013-03-31 10:08:00
5:53 AM,55.9,55.0,97,30.02,4.0,Calm,Calm,-,N/A,,Clear,0,2013-03-31 10:53:00
6:02 AM,55.4,55.4,100,30.02,1.5,Calm,Calm,-,N/A,,Clear,0,2013-03-31 11:02:00
6:10 AM,55.4,55.4,100,30.03,0.5,Calm,Calm,-,N/A,Fog,Fog,0,2013-03-31 11:10:00
6:20 AM,55.4,55.4,100,30.03,0.2,Calm,Calm,-,N/A,Fog,Fog,0,2013-03-31 11:20:00
6:32 AM,55.4,55.4,100,30.03,0.5,Calm,Calm,-,N/A,Fog,Fog,0,2013-03-31 11:32:00
6:40 AM,55.4,55.4,100,30.04,0.2,Calm,Calm,-,N/A,Fog,Fog,0,2013-03-31 11:40:00
6:51 AM,55.4,55.4,100,30.04,1.0,Calm,Calm,-,0.01,,Mostly Cloudy,0,2013-03-31 11:51:00
6:53 AM,55.0,54.0,96,30.04,1.0,Calm,Calm,-,0.01,,Mostly Cloudy,0,2013-03-31 11:53:00
6:58 AM,55.4,55.4,100,30.04,1.0,Calm,Calm,-,N/A,,Mostly Cloudy,0,2013-03-31 11:58:00
7:39 AM,60.8,60.8,100,30.04,1.0,Calm,Calm,-,N/A,,Mist,0,2013-03-31 12:39:00
7:53 AM,62.1,61.0,96,30.05,3.0,Calm,Calm,-,N/A,,Mostly Cloudy,0,2013-03-31 12:53:00
8:06 AM,60.8,60.8,100,30.05,2.0,Calm,Calm,-,N/A,,Overcast,0,2013-03-31 13:06:00
8:13 AM,62.6,62.6,100,30.05,1.0,Calm,Calm,-,N/A,Fog,Shallow Fog,0,2013-03-31 13:13:00
8:33 AM,62.6,62.6,100,30.06,2.0,Calm,Calm,-,N/A,,Overcast,0,2013-03-31 13:33:00
8:53 AM,63.0,63.0,100,30.05,2.0,East,3.5,-,N/A,,Overcast,80,2013-03-31 13:53:00
9:00 AM,62.6,62.6,100,30.05,4.0,East,3.5,-,N/A,,Overcast,100,2013-03-31 14:00:00
9:53 AM,66.0,64.0,93,30.05,8.0,ESE,6.9,-,N/A,,Overcast,110,2013-03-31 14:53:00
10:18 AM,66.2,62.6,88,30.04,10.0,ESE,8.1,-,N/A,,Overcast,120,2013-03-31 15:18:00
10:53 AM,66.9,64.0,90,30.04,10.0,ESE,8.1,-,N/A,,Overcast,120,2013-03-31 15:53:00
11:53 AM,69.1,64.0,84,30.03,10.0,SE,10.4,-,N/A,,Mostly Cloudy,130,2013-03-31 16:53:00
12:00 PM,69.8,64.4,83,30.03,10.0,SSE,9.2,-,N/A,,Mostly Cloudy,150,2013-03-31 17:00:00
12:53 PM,68.0,64.0,87,30.01,10.0,SE,6.9,-,N/A,,Mostly Cloudy,130,2013-03-31 17:53:00
1:53 PM,75.0,63.0,66,29.98,10.0,SSE,16.1,24.2,N/A,,Mostly Cloudy,160,2013-03-31 18:53:00
2:53 PM,73.9,64.0,71,29.97,10.0,SSE,11.5,21.9,N/A,,Partly Cloudy,160,2013-03-31 19:53:00
3:53 PM,72.0,63.0,73,29.96,10.0,South,9.2,-,N/A,,Partly Cloudy,170,2013-03-31 20:53:00
4:53 PM,70.0,63.0,78,29.93,10.0,South,9.2,-,N/A,,Partly Cloudy,170,2013-03-31 21:53:00
5:53 PM,68.0,63.0,84,29.94,10.0,South,6.9,-,N/A,,Clear,180,2013-03-31 22:53:00
6:53 PM,69.1,62.1,78,29.96,10.0,South,10.4,-,0.00,Rain,Light Rain,190,2013-03-31 23:53:00
7:14 PM,69.8,62.6,78,29.96,10.0,SSW,8.1,-,0.00,Rain-Thunderstorm,Light Rain,200,2013-04-01 00:14:00
7:53 PM,64.0,63.0,96,29.99,5.0,Variable,3.5,-,0.12,Rain-Thunderstorm,Rain,0,2013-04-01 00:53:00
8:03 PM,62.6,62.6,100,29.98,4.0,Calm,Calm,-,0.03,Rain,Rain,0,2013-04-01 01:03:00
8:53 PM,63.0,62.1,97,29.93,10.0,South,5.8,-,0.06,Rain,Light Rain,180,2013-04-01 01:53:00
9:26 PM,62.6,60.8,94,29.93,10.0,South,5.8,-,N/A,,Overcast,170,2013-04-01 02:26:00
9:53 PM,63.0,61.0,93,29.94,10.0,SSE,6.9,-,0.00,,Overcast,160,2013-04-01 02:53:00
10:53 PM,63.0,61.0,93,29.94,10.0,South,3.5,-,N/A,,Scattered Clouds,180,2013-04-01 03:53:00
11:53 PM,61.0,61.0,100,29.94,10.0,West,3.5,-,N/A,,Scattered Clouds,280,2013-04-01 04:53:00